Location: Karlovy Vary
(50.2170°N, 12.9000°E)
Time: 08:49:56
(UTC+02:00)

ISS - Visible Passes

Search period start: 21 July 2024 00:00
Search period end: 31 July 2024 00:00
Orbit: 409 x 423 km, 51.6° (Epoch: 21 July)

Date Brightness Start Highest point End Pass type
(mag) Time Alt. Az. Time Alt. Az. Time Alt. Az.
21 Jul -3.8 22:14:54 10° WNW 22:18:13 76° SSW 22:21:09 13° ESE visible
21 Jul -1.9 23:52:05 10° W 23:54:01 19° SW 23:54:01 19° SW visible
22 Jul -2.6 23:03:18 10° W 23:06:13 29° SSW 23:07:05 25° S visible
23 Jul -3.1 22:14:38 10° W 22:17:47 41° SSW 22:20:10 15° SE visible
24 Jul -1.6 23:03:38 10° WSW 23:05:29 14° SW 23:06:08 14° SSW visible
25 Jul -2.0 22:14:29 10° W 22:17:04 21° SW 22:19:15 12° S visible
